Flag for U.S.A. Weather past 2 weeks in San Francisco, California, U.S.A.

Now
55 °F

Partly sunny.


Feels Like: 52 °F
Forecast: 52 / 58 °F
Wind: 12 mph from West

Location: San Francisco International Airport

Current Time: Feb 28, 2015 at 9:25:40 AM

Latest Report: Feb 28, 2015 at 8:56 AM


Visibility: 10 mi

Pressure: 29.78 "Hg

Humidity: 74%

Dew point: 47 °F

Location of San FranciscoLocation

Historic Weather in San Francisco — Graph

°F

San Francisco temperature yesterday

Maximum temperature yesterday: 61 °F (at 12:56 PM)
Minimum temperature yesterday: 53 °F (at 9:56 PM)
Average temperature yesterday: 56 °F

Past Weeks' High & Low Weather Summary

 TemperatureHumidityPressure
High73 °F (Feb 15, 1:56 PM)100% (Feb 14, 3:56 AM)30.36 "Hg (Feb 14, 3:56 AM)
Low46 °F (Feb 24, 5:56 AM)30% (Feb 23, 8:56 AM)29.72 "Hg (Feb 28, 3:56 AM)
Average58 °F79%30.04 "Hg
* Reported Feb 13 7:56 AM — Feb 28 7:56 AM, San Francisco, Weather by CustomWeather, © 2015

Note: Actual official high and low records may vary slightly from our data, if they occured in-between our weather recording intervals... More about our weather records

Advertising

San Francisco weather history for previous 24 hours

 ConditionsComfort  
Time TempWeatherWind HumidityBarometerVisibility
7:56 AM
Sat, Feb 28
54 °FScattered clouds.12 mph80%29.76 "Hg10 mi
6:56 AM52 °FPartly sunny.8 mph89%29.75 "Hg10 mi
5:56 AM51 °FPassing clouds.5 mph86%29.74 "Hg10 mi
4:56 AM52 °FPassing clouds.12 mph86%29.73 "Hg10 mi
3:56 AM52 °FPassing clouds.12 mph86%29.72 "Hg10 mi
2:56 AM53 °FPassing clouds.14 mph83%29.74 "Hg10 mi
1:56 AM53 °FPassing clouds.15 mph83%29.75 "Hg10 mi
12:56 AM53 °FPassing clouds.23 mph80%29.75 "Hg10 mi
11:56 PM
Fri, Feb 27
53 °FPassing clouds.16 mph83%29.76 "Hg10 mi
10:56 PM53 °FPassing clouds.20 mph86%29.76 "Hg10 mi
9:56 PM53 °FPassing clouds.21 mph80%29.77 "Hg10 mi
8:56 PM54 °FPassing clouds.23 mph74%29.77 "Hg10 mi
7:56 PM54 °FPartly cloudy.22 mph80%29.77 "Hg10 mi
6:56 PM54 °FLight rain. Partly cloudy.24 mph83%29.77 "Hg10 mi
5:56 PM55 °FScattered clouds.25 mph80%29.76 "Hg10 mi
4:56 PM57 °FScattered clouds.23 mph74%29.78 "Hg10 mi
3:56 PM59 °FBroken clouds.24 mph69%29.79 "Hg10 mi
2:56 PM60 °FScattered clouds.32 mph62%29.79 "Hg10 mi
1:56 PM58 °FPartly sunny.24 mph72%29.81 "Hg10 mi
12:56 PM61 °FBroken clouds.22 mph65%29.84 "Hg10 mi
11:56 AM60 °FPartly sunny.21 mph69%29.88 "Hg10 mi
10:56 AM60 °FScattered clouds.21 mph78%29.87 "Hg10 mi
9:56 AM60 °FScattered clouds.25 mph78%29.89 "Hg10 mi
Weather by CustomWeather, © 2015

See weather overviewHow to use our weather pages